EW9994 Weather Reports


time (UTC)temp
C
wind
direction
speed
KPH
gust
KPH
rain 1hr
cm
rain 24hr
cm
rain mn
cm
humidity
%
barometer
mb
20260901041906 20 23 4.8 9.7 0.00 0.00 0.00 80 1017.4
20260901041406 20 23 4.8 11.3 0.00 0.00 0.00 80 1017.4
20260901034906 20 26 8.0 12.9 0.00 0.00 0.00 81 1017.3
20260901034406 20 25 4.8 9.7 0.00 0.00 0.00 81 1017.4
20260901033406 20 25 8.0 12.9 0.00 0.00 0.00 81 1017.4
20260901031406 20 23 3.2 9.7 0.00 0.00 0.00 79 1017.5
20260901030906 20 23 8.0 11.3 0.00 0.00 0.00 79 1017.5
20260901023905 20 24 8.0 9.7 0.00 0.00 0.00 77 1017.5
20260901020405 20 25 4.8 9.7 0.00 0.00 0.00 74 1017.3
20260901014905 20 25 0.0 0.0 0.00 0.00 0.00 74 1017.2
20260901014406 20 25 0.0 1.6 0.00 0.00 0.00 73 1017.1
20260901013905 20 24 0.0 1.6 0.00 0.00 0.00 74 1017.2
20260901013405 20 24 0.0 1.6 0.00 0.00 0.00 76 1017.2
20260901010905 21 24 4.8 8.0 0.00 0.00 0.00 78 1017.2
20260901010406 21 24 1.6 4.8 0.00 0.00 0.00 77 1017.3
20260901003405 21 24 0.0 0.0 0.00 0.00 0.00 78 1017.4
20260901001905 21 24 0.0 0.0 0.00 0.00 0.00 79 1017.4
20260831234906 21 24 0.0 3.2 0.00 0.00 0.00 81 1017.5
20260831234406 21 23 0.0 4.8 0.00 0.00 0.00 81 1017.5
20260831233905 21 24 0.0 1.6 0.00 0.00 0.00 81 1017.5
20260831233406 21 23 1.6 4.8 0.00 0.00 0.00 81 1017.5
20260831231910 21 24 1.6 4.8 0.00 0.00 0.00 81 1017.5
20260831230905 21 23 4.8 11.3 0.00 0.00 0.00 80 1017.4
20260831223405 21 23 0.0 12.9 0.00 0.00 0.00 82 1017.1
20260831221405 21 23 3.2 9.7 0.00 0.00 0.00 82 1017.0
20260831214905 21 23 3.2 12.9 0.00 0.00 0.00 82 1016.9
20260831213406 21 23 8.0 12.9 0.00 0.00 0.00 82 1016.8
20260831211908 21 23 8.0 12.9 0.00 0.00 0.00 82 1016.7
20260831210905 21 23 8.0 12.9 0.00 0.00 0.00 82 1016.7
20260831210405 21 23 8.0 14.5 0.00 0.00 0.00 82 1016.6
20260831204905 21 23 9.7 14.5 0.00 0.00 0.00 82 1016.5
20260831203408 21 34 11.3 16.1 0.00 0.00 0.00 82 1016.4
20260831201906 21 33 8.0 14.5 0.00 0.00 0.00 82 1016.3
20260831200407 22 34 8.0 12.9 0.00 0.00 0.00 82 1016.1
20260831191407 22 36 8.0 14.5 0.00 0.00 0.00 81 1016.0
20260831184407 23 37 9.7 12.9 0.00 0.00 0.00 78 1015.7
20260831183407 23 37 4.8 12.9 0.00 0.00 0.00 77 1015.4
20260831181407 23 37 9.7 19.3 0.00 0.00 0.00 75 1015.2
20260831180906 23 49 11.3 19.3 0.00 0.00 0.00 74 1015.2
20260831180406 24 50 9.7 16.1 0.00 0.00 0.00 74 1015.1
20260831173907 26 37 1.6 4.8 0.00 0.00 0.00 68 1015.1
20260831171407 27 214 3.2 8.0 0.00 0.00 0.00 63 1015.2
20260831170409 27 198 8.0 19.3 0.00 0.00 0.00 62 1015.3
20260831164407 27 220 8.0 16.1 0.00 0.00 0.00 58 1015.2
20260831163906 28 199 9.7 16.1 0.00 0.00 0.00 58 1015.2
20260831161907 28 223 4.8 14.5 0.00 0.00 0.00 55 1015.2
20260831160406 28 195 9.7 16.1 0.00 0.00 0.00 53 1015.2
20260831153406 29 243 9.7 20.9 0.00 0.00 0.00 56 1015.3
20260831151906 29 214 6.4 19.3 0.00 0.00 0.00 58 1015.4
20260831150907 29 210 11.3 19.3 0.00 0.00 0.00 57 1015.3
20260831150406 29 210 11.3 19.3 0.00 0.00 0.00 57 1015.3
20260831141906 30 247 11.3 24.1 0.00 0.00 0.00 60 1015.2
20260831141406 30 236 11.3 19.3 0.00 0.00 0.00 61 1015.2
20260831140406 30 231 9.7 19.3 0.00 0.00 0.00 60 1015.3
20260831134406 29 182 8.0 12.9 0.00 0.00 0.00 63 1015.3
20260831131407 28 208 4.8 11.3 0.00 0.00 0.00 61 1015.6
20260831130906 29 247 4.8 9.7 0.00 0.00 0.00 61 1015.6
20260831123406 29 201 3.2 14.5 0.00 0.00 0.00 59 1015.8
20260831121906 28 260 3.2 9.7 0.00 0.00 0.00 62 1015.9
20260831121406 28 302 3.2 4.8 0.00 0.00 0.00 61 1015.9
20260831120906 28 61 3.2 4.8 0.00 0.00 0.00 60 1016.0
20260831120406 28 143 3.2 16.1 0.00 0.00 0.00 62 1016.0
20260831114908 28 215 3.2 9.7 0.00 0.00 0.00 62 1016.1
20260831114406 28 195 4.8 8.0 0.00 0.00 0.00 63 1016.1
20260831113906 28 250 4.8 8.0 0.00 0.00 0.00 66 1016.1
20260831113406 27 31 6.4 12.9 0.00 0.00 0.00 65 1016.1
20260831110906 27 146 4.8 8.0 0.00 0.00 0.00 66 1016.3
20260831110406 27 183 3.2 11.3 0.00 0.00 0.00 66 1016.3
20260831104906 27 249 3.2 8.0 0.00 0.00 0.00 67 1016.3
20260831103406 26 243 9.7 12.9 0.00 0.00 0.00 69 1016.4
20260831101906 26 231 4.8 11.3 0.00 0.00 0.00 71 1016.4
20260831101406 26 211 3.2 8.0 0.00 0.00 0.00 69 1016.4
20260831093906 25 228 4.8 8.0 0.00 0.00 0.00 70 1016.5
20260831093406 25 227 3.2 11.3 0.00 0.00 0.00 72 1016.6
20260831091906 25 224 6.4 12.9 0.00 0.00 0.00 73 1016.8
20260831090906 25 229 4.8 9.7 0.00 0.00 0.00 73 1016.8
20260831090406 24 197 6.4 11.3 0.00 0.00 0.00 74 1016.8
20260831084906 24 248 4.8 11.3 0.00 0.00 0.00 76 1016.8
20260831083906 23 207 8.0 9.7 0.00 0.00 0.00 77 1016.8
20260831083406 23 243 4.8 9.7 0.00 0.00 0.00 76 1016.9
20260831081905 24 215 4.8 8.0 0.00 0.00 0.00 76 1016.8
20260831080906 23 214 3.2 8.0 0.00 0.00 0.00 77 1016.7
20260831080406 23 223 4.8 11.3 0.00 0.00 0.00 77 1016.7
20260831074907 23 245 3.2 4.8 0.00 0.00 0.00 77 1016.6
20260831073407 23 205 1.6 4.8 0.00 0.00 0.00 76 1016.6
20260831071406 22 256 0.0 1.6 0.00 0.00 0.00 80 1016.5
20260831070906 22 256 1.6 3.2 0.00 0.00 0.00 80 1016.5
20260831070406 21 256 1.6 4.8 0.00 0.00 0.00 81 1016.5
20260831064406 21 26 4.8 8.0 0.00 0.00 0.00 81 1016.4
20260831063406 21 26 1.6 4.8 0.00 0.00 0.00 82 1016.3
20260831060405 20 26 0.0 0.0 0.00 0.00 0.00 81 1016.3
20260831054905 19 25 0.0 0.0 0.00 0.00 0.00 82 1016.2
20260831053906 19 26 0.0 0.0 0.00 0.00 0.00 81 1016.3
20260831053408 19 25 0.0 1.6 0.00 0.00 0.00 80 1016.2
20260831051906 18 25 1.6 1.6 0.00 0.00 0.00 79 1016.1
20260831050406 18 25 0.0 4.8 0.00 0.00 0.00 79 1015.9
20260831044906 18 25 4.8 8.0 0.00 0.00 0.00 79 1015.8